Location: Hauppauge
(40.8260°N, 73.2030°W)
Time: 17:03:28
(UTC-04:00)

Daily predictions for brighter satellites

Satellite Brightness Start Highest point End
(mag) Time Altitude Azimuth Time Altitude Azimuth Time Altitude Azimuth
USA 267 3.8 20:00:59 10° NE 20:07:28 65° NW 20:13:55 10° WSW
Spot 2 Rocket 3.5 20:06:16 10° SSE 20:11:20 72° ENE 20:16:25 10° N
Cosmos 1900 4.4 20:06:55 10° NNW 20:12:03 84° ENE 20:17:11 10° SSE
Milstar 3 3.9 20:05:30 10° WSW 20:13:16 33° S 20:19:11 10° ESE
OAO 3 Rocket 4.0 20:09:26 10° SW 20:13:53 36° S 20:18:25 10° ESE
Cosmos 1869 4.0 20:10:33 10° SSE 20:14:05 33° E 20:17:39 10° NNE
Cosmos 2297 Rocket 4.1 20:09:44 10° NW 20:14:39 31° WSW 20:19:34 10° SSW
FENGYUN 3A 4.3 20:09:37 10° S 20:14:55 61° W 20:20:14 10° NNW
Resurs 01 Rocket 1.7 20:11:24 10° SSE 20:15:51 86° ENE 20:20:20 10° NNW
SJ-6B 4.4 20:15:08 10° SSW 20:18:48 37° W 20:22:33 10° NNW
Cosmos 1892 2.9 20:15:56 10° N 20:19:44 77° W 20:23:31 10° S
Cosmos 1400 Rocket 3.3 20:18:06 10° NNW 20:21:59 64° W 20:25:51 10° S
Cosmos 2263 Rocket 3.5 20:17:49 10° N 20:22:18 24° NE 20:26:42 10° ESE
GRACE-1 3.7 20:21:22 10° N 20:24:07 65° E 20:26:49 10° S
CZ-4B DEB 3.9 20:21:57 10° SE 20:24:29 25° ENE 20:27:03 10° NNE
GRACE-2 3.7 20:21:47 10° N 20:24:30 65° E 20:27:13 10° S
Cosmos 2322 Rocket 2.6 20:22:12 10° S 20:27:21 39° ESE 20:32:32 10° NE
Meteor 1-29 3.8 20:24:49 10° NE 20:27:55 29° E 20:30:59 10° SSE
H-2A R/B 3.7 20:25:27 10° S 20:29:16 51° W 20:33:04 10° NNW
Meteor 2-3 Rocket 4.5 20:25:36 10° NNW 20:31:11 57° W 20:36:47 10° S
Envisat 3.4 20:26:27 10° SE 20:31:17 47° ENE 20:36:09 10° N
Cosmos 1302 Rocket 4.0 20:26:36 10° SSW 20:31:48 87° WNW 20:37:02 10° NNE
Cosmos 220 Rocket 4.5 20:28:33 10° N 20:32:50 45° ENE 20:36:43 12° SE
Cosmos 1315 Rocket 2.9 20:31:29 10° N 20:35:36 87° W 20:39:36 10° S
Cosmos 2360 Rocket 3.5 20:34:25 10° SE 20:38:07 18° E 20:41:48 10° ENE
Cosmos 1980 Rocket 2.9 20:32:56 10° SW 20:38:32 61° WNW 20:44:12 10° NNE
USA 234 3.4 20:35:33 12° ESE 20:41:34 70° NE 20:48:05 10° NW
Cosmos 2026 Rocket 4.1 20:36:53 10° N 20:43:04 59° E 20:49:06 10° SSE
Intercosmos 25 Rocket 3.2 20:43:48 10° SSE 20:46:51 48° E 20:50:30 10° NNE
Cosmos 1825 2.3 20:45:40 10° N 20:49:24 55° E 20:52:20 16° SSE
CZ-2D R/B 4.4 20:45:57 10° S 20:49:40 44° W 20:53:25 10° NNW
SL-16 R/B 2.1 20:49:20 10° S 20:54:55 66° ESE 21:00:33 10° NNE
Cosmos 1634 Rocket 4.3 20:55:52 10° SSW 21:02:08 75° W 21:08:29 10° N
Cosmos 1862 3.5 20:58:20 10° N 21:02:18 54° E 21:04:34 23° SSE
ATLAS 5 CENTAUR R/B 3.3 20:56:55 10° NNW 21:02:21 35° NE 21:06:11 19° E
Helios 1B rocket 2.7 21:00:10 10° N 21:04:16 71° WNW 21:08:20 10° SSW
ERS-1 Rocket 3.3 21:02:09 21° SE 21:05:09 47° ENE 21:09:58 10° N
USA 186 3.6 21:03:35 10° SSW 21:05:52 25° W 21:08:18 10° NW
Lacrosse 4 Rocket 1.4 21:01:57 10° NNW 21:06:17 79° ENE 21:08:46 25° SE
Cosmos 1655 Rocket 4.0 21:03:26 10° N 21:09:52 78° E 21:15:36 13° SSE
ERBS 2.8 21:07:56 10° NW 21:11:20 55° SW 21:12:44 31° SSE
SAR-Lupe-4 4.5 21:07:59 11° S 21:11:22 47° W 21:14:51 10° NNW
Cosmos 1733 Rocket 3.0 21:06:56 10° N 21:11:23 75° E 21:14:14 22° SSE
Cosmos 1939 Rocket 2.9 21:08:25 17° S 21:11:33 81° WSW 21:15:35 10° NNW
ARGOS 4.1 21:11:28 23° ESE 21:13:34 31° ENE 21:18:12 10° N
Cosmos 1862 Rocket 3.5 21:13:00 10° S 21:17:21 78° E 21:21:52 10° N
SeaSat 1 3.4 21:17:14 25° E 21:19:11 34° NE 21:23:36 10° N
USA 229 DEB 4.2 21:16:24 10° S 21:22:26 35° ESE 21:28:33 10° NE
USA 229 4.2 21:16:31 10° S 21:22:31 35° ESE 21:28:37 10° NE
Cosmos 1992 Rocket 3.9 21:19:12 10° SSW 21:24:26 89° ESE 21:29:42 10° NNE
Cosmos 1408 3.6 21:21:17 10° NNW 21:24:50 45° W 21:27:28 16° SSW
Cosmos 1844 Rocket 4.4 21:21:44 10° N 21:25:32 18° NE 21:27:24 16° ENE
ORS 1 (USA 231) 4.3 21:23:15 10° W 21:26:19 76° S 21:26:23 76° SSE
Atlas Centaur 2 3.6 21:23:01 10° SW 21:29:24 32° SSE 21:31:32 28° SE
Okean 1-7 4.3 21:31:05 25° ENE 21:31:05 25° ENE 21:34:00 10° NNE
Cosmos 2266 Rocket 4.3 21:25:01 10° N 21:31:05 49° ENE 21:33:36 33° SE
Terra 3.8 21:31:11 14° ENE 21:31:31 14° ENE 21:34:01 10° NNE
Abrixas rocket 4.3 21:30:50 10° WNW 21:33:41 26° NNW 21:35:57 13° NE
MOS 1-B Rocket 4.3 21:32:23 32° ESE 21:34:35 45° ENE 21:39:56 10° N
YAOGAN 11 4.2 21:36:20 47° ESE 21:37:16 59° ENE 21:41:34 10° N
Cosmos 1703 Rocket 3.8 21:37:04 46° ESE 21:37:22 47° E 21:41:37 10° NNE
Cosmos 2279 Rocket 4.5 21:37:17 10° SSW 21:43:26 60° W 21:49:37 10° N
Cosmos 2221 Rocket 4.2 21:44:07 39° ENE 21:44:07 39° ENE 21:47:47 10° NNE
Cosmos 2219 Rocket 4.3 21:46:58 11° ENE 21:46:58 11° ENE 21:47:13 10° ENE
MetOp-A 4.0 21:47:17 41° SSE 21:49:16 86° ENE 21:54:39 10° NNW
Cosmos 1867 3.7 21:45:24 10° NNW 21:50:49 59° NE 21:52:05 47° ESE
Cosmos 489 Rocket 4.4 21:46:38 10° NNW 21:53:01 84° ENE 21:55:24 42° SSE
H-2A R/B 2.5 21:52:50 40° E 21:53:14 41° ENE 21:57:52 10° N
Meteor 1-14 Rocket 4.2 21:48:38 10° N 21:54:17 69° E 21:55:46 49° SE
OAO 3 Rocket 3.8 21:52:24 10° WSW 21:56:38 41° SSW 21:56:38 41° SSW
YAOGAN 6 4.0 21:56:56 28° SW 21:57:55 34° W 22:01:16 10° NNW
Cosmos 2237 4.3 22:00:10 52° ESE 22:00:28 53° ESE 22:06:02 10° NNE
SPOT 5 2.8 22:04:10 64° S 22:04:56 88° WSW 22:09:40 10° NNW
Cosmos 968 Rocket 3.4 22:00:45 10° NNW 22:05:58 86° WSW 22:06:50 63° S
Cosmos 2263 Rocket 2.8 22:01:08 10° NW 22:06:30 50° WSW 22:08:26 35° SSW
COSMOS 2428 3.2 22:10:12 43° ENE 22:10:12 43° ENE 22:14:43 10° NE
Meteor 2-10 Rocket 4.2 22:05:36 17° SSW 22:10:07 61° WNW 22:15:53 10° N
Meteor 1-25 Rocket 4.1 22:04:35 10° N 22:10:11 69° E 22:10:47 63° ESE
Cosmos 2322 Rocket 4.0 22:06:33 10° WSW 22:11:27 30° WNW 22:16:23 10° N
Sich 1 Rocket 4.3 22:11:29 10° NNW 22:15:49 49° W 22:16:31 45° SW
Cosmos 2360 Rocket 2.6 22:15:56 10° SW 22:21:31 62° WNW 22:27:09 10° NNE
H-2A R/B 3.1 22:23:59 38° NNE 22:23:59 38° NNE 22:27:02 10° N
USA 234 4.3 22:22:54 28° SSW 22:24:50 33° SW 22:30:38 10° WNW
Cosmos 1844 4.3 22:22:55 10° N 22:28:18 41° ENE 22:28:20 41° ENE
Cosmos 2322 4.1 22:25:27 20° SW 22:29:23 63° WNW 22:35:04 10° NNE
Meteor 1-20 Rocket 4.0 22:24:17 10° N 22:29:52 89° E 22:30:10 81° SSE
Meteor 2-6 Rocket 4.3 22:39:59 68° ENE 22:39:59 68° ENE 22:45:34 10° NNE
SPOT 1/Viking Rocket 3.8 22:40:22 59° WSW 22:40:33 59° W 22:45:43 10° NNW
Okean 2 Rocket 3.9 22:41:18 10° NNW 22:44:59 49° NW 22:44:59 49° NW
ATLAS 5 CENTAUR R/B 2.9 22:41:25 10° NW 22:47:16 49° WSW 22:47:45 48° SW
Cosmos 2333 Rocket 3.5 22:52:12 29° NE 22:52:12 29° NE 22:55:11 10° NE
Cosmos 2333 4.3 22:51:48 74° NNE 22:51:48 74° NNE 22:57:02 10° NNE
Landsat 7 4.5 22:54:27 53° NW 22:54:27 53° NW 22:58:19 10° NNW
ARGOS 4.3 22:52:59 33° WSW 22:53:42 34° W 22:58:34 10° NNW
SeaSat 1 3.7 22:57:02 32° W 22:57:02 32° W 23:01:05 10° NW
Cosmos 2237 Rocket 3.9 22:59:46 22° NE 22:59:46 22° NE 23:01:57 10° NE
Cosmos 2278 Rocket 3.1 22:55:26 10° N 23:00:07 40° NE 23:00:07 40° NE
Cosmos 1417 Rocket 4.4 23:03:56 83° WNW 23:03:56 83° WNW 23:10:14 10° N
Cosmos 1745 Rocket 4.2 22:59:47 10° N 23:05:30 64° NE 23:05:30 64° NE
Terra 2.8 23:10:04 44° NW 23:10:04 44° NW 23:13:26 10° NNW
NOSS 3-1 (C) 4.0 23:11:31 46° NE 23:11:31 46° NE 23:16:00 10° NE
Cosmos 1844 Rocket 3.1 23:04:26 10° NNW 23:09:04 59° NW 23:09:04 59° NW
Meteor 1-27 Rocket 4.2 23:12:59 55° NNE 23:12:59 55° NNE 23:17:20 10° N
USA 229 DEB 4.5 23:06:35 10° WSW 23:13:10 49° NW 23:19:55 10° NNE
USA 229 4.4 23:06:39 10° WSW 23:13:15 50° NW 23:20:00 10° NNE
Atlas Centaur 2 4.3 23:11:07 10° WSW 23:14:12 24° SW 23:14:12 24° SW
NOSS 3-1 (A) 4.4 23:26:28 38° NE 23:26:28 38° NE 23:30:24 10° NE
Cosmos 2219 Rocket 2.9 23:28:37 50° N 23:28:37 50° N 23:32:53 10° NNE
CZ-4C R/B 3.0 23:24:49 10° NNW 23:31:54 63° NE 23:32:09 62° ENE
H-2A R/B 3.9 23:33:27 22° W 23:33:27 22° W 23:36:39 10° NW
Meteor 1-11 Rocket 4.4 23:29:00 10° NNW 23:33:08 49° NW 23:33:08 49° NW
COSMOS 2428 4.5 23:52:07 23° W 23:53:45 26° NW 23:58:30 10° N
